CDT,Max TemperatureF,Mean TemperatureF,Min TemperatureF,Max Dew PointF,MeanDew PointF,Min DewpointF,Max Humidity, Mean Humidity, Min Humidity, Max Sea Level PressureIn, Mean Sea Level PressureIn, Min Sea Level PressureIn, Max VisibilityMiles, Mean VisibilityMiles, Min VisibilityMiles, Max Wind SpeedMPH, Mean Wind SpeedMPH, Max Gust SpeedMPH,PrecipitationIn, CloudCover, Events, WindDirDegrees
2012-9-1,90,85,79,78,76,74,100,82,64,30.16,30.10,30.06,10,10,10,15,8,17,0.00,3,,187
2012-9-2,92,85,78,78,76,74,97,77,56,30.10,30.03,29.96,10,10,7,14,7,20,0.00,1,,252
2012-9-3,92,85,78,78,76,75,91,74,56,30.05,29.98,29.92,10,10,8,13,7,16,0.00,1,,269
2012-9-4,92,85,78,77,76,75,97,75,52,29.97,29.93,29.86,10,10,9,17,9,20,0.00,0,,268
2012-9-5,92,86,79,78,76,74,91,76,60,29.93,29.87,29.82,10,9,7,21,9,26,T,4,,289
2012-9-6,92,86,79,77,76,74,91,75,59,29.94,29.89,29.85,10,10,8,13,7,17,0.00,3,,62
2012-9-7,91,84,77,77,74,72,85,69,52,29.92,29.86,29.81,10,10,10,16,6,21,0.00,1,,95
2012-9-8,94,85,75,77,75,69,91,72,52,29.94,29.84,29.78,10,8,0,32,9,40,0.09,4,Rain,342
2012-9-9,83,78,72,68,62,57,79,62,45,30.03,29.98,29.92,10,10,10,20,11,23,0.00,2,,24
2012-9-10,85,77,69,62,60,56,68,54,40,30.10,30.05,30.01,10,10,10,16,6,20,0.00,0,,76
2012-9-11,88,78,67,70,66,61,81,66,50,30.12,30.08,30.04,10,10,10,15,7,21,0.00,1,,98
2012-9-12,89,82,75,74,72,71,87,73,59,30.15,30.08,30.04,10,10,8,15,5,20,T,2,,96
2012-9-13,88,82,75,74,72,70,88,73,57,30.15,30.10,30.06,10,10,9,18,5,25,0.11,2,,101
2012-9-14,90,83,75,74,70,66,94,69,44,30.14,30.10,30.06,10,10,10,12,6,20,0.00,0,,81
2012-9-15,90,83,75,73,69,67,82,64,46,30.11,30.06,30.02,10,10,10,15,7,18,0.00,0,,73
2012-9-16,89,82,74,74,73,69,94,75,55,30.03,29.98,29.92,10,10,8,20,5,24,0.14,2,,100
2012-9-17,81,77,73,75,73,70,94,90,85,29.91,29.79,29.68,10,7,0,20,6,25,1.38,5,Rain,182
2012-9-18,84,78,71,72,70,65,93,76,58,29.99,29.84,29.76,10,9,3,20,11,25,0.01,4,Rain,303
2012-9-19,81,74,67,65,61,59,79,62,45,30.08,30.03,29.99,10,10,10,17,8,24,0.00,0,,29
2012-9-20,84,77,69,65,61,57,73,60,47,30.09,30.03,29.98,10,10,10,13,6,20,0.00,0,,70
2012-9-21,86,77,68,70,68,66,87,69,51,30.03,29.99,29.96,10,10,8,13,5,15,0.00,0,,94
2012-9-22,89,79,69,73,70,66,97,70,43,30.09,30.04,29.99,10,9,6,12,3,15,0.00,0,,338
2012-9-23,90,81,72,73,70,66,94,71,47,30.15,30.11,30.07,10,8,6,9,3,14,0.00,0,,289
2012-9-24,89,81,73,74,71,69,93,72,50,30.16,30.11,30.06,9,6,3,12,5,15,0.00,0,,305
2012-9-25,88,80,72,71,67,63,93,72,51,30.11,30.08,30.04,10,10,9,14,4,33,0.00,0,,121
2012-9-26,88,79,69,72,68,64,84,64,43,30.11,30.07,30.04,10,10,10,13,4,22,0.00,1,,119
2012-9-27,88,79,69,74,71,68,97,77,57,30.12,30.07,30.01,10,10,8,21,4,26,0.24,2,Rain,117
2012-9-28,87,80,72,75,73,71,94,80,65,30.07,30.02,29.97,10,9,0,20,4,23,0.08,4,Rain,115
2012-9-29,77,76,74,74,72,70,94,91,87,29.99,29.92,29.84,10,7,2,13,6,17,0.36,6,Rain,161
2012-9-30,84,80,75,75,73,72,94,87,79,29.83,29.67,29.55,10,7,0,26,12,33,0.62,6,Rain,180